Kuiper-00039

operational
NORAD ID: 64500 Int'l Des: 2025-134 Owner: KUIP Country: US Constellation: kuiper
LEOCIRCULAR

About Kuiper-00039

Description loading...

Live Position

Loading 3D Globe...

Upcoming Passes

Altitude History

Altitude vs Time

uPlot chart will show altitude changes over time

Two-Line Element Set

1 64500U 25134A 26061.06703943 .00004042 00000-0 55914-3 0 9994
2 64500 51.9000 266.8002 0001021 60.7971 299.3093 14.79911602 38949
Epoch: Mar 2, 2026 • Age: 29 hours

Current Status

Altitude 643.4 km
Velocity 7.54 km/s
Sub-Earth Point -40.94°S, 15.41°W
Launch Date Jun 23, 2025
Age 0.6 years
Type internet

Technical Details

Classification Payload
Mass 490.00 kg
Dry Mass 490.00 kg
Total Mass 490.00 kg
Length 1.80 m
Diameter 0.70 m
Span 5.00 m
Shape Box + 2 pan
Manufacturer KUIP
Bus Type Kuiper
Phase Status In Orbit
Owner/State KUIP/US

Large Constellations

Loading constellations...